Location: Bílinka
(49.3579°N, 14.3767°E)
Time: 01:41:26
(UTC+00:00)

CZ-4 R/B - Pass Details

Date: 28 January 2023
Orbit: 526 x 586 km, 97.7° (Epoch: 31 March)

Event Time Altitude Azimuth Distance (km) Brightness Sun altitude
Rises 16:36:07 0° 117° (ESE) 2,816 4.5 -7.5°
Reaches altitude 10° 16:39:06 10° 93° (E) 1,914 3.5 -8.0°
Maximum altitude 16:41:24 15° 59° (ENE) 1,624 3.1 -8.3°
Drops below altitude 10° 16:43:42 10° 25° (NNE) 1,907 3.7 -8.7°
Sets 16:46:39 0° 2° (N) 2,800 4.7 -9.1°
